Regional Weather Roundup
Issued by NWS

Home | Current Version | Previous Version | Graphics & Text | Print | Product List | Glossary On
Versions: 1 2 3 4 5 6 7 8 9 10 11 12 13 14 15 16 17 18 19 20 21 22 23 24 25 26 27 28 29 30 31 32 33 34 35 36 37 38 39 40 41 42 43 44 45 46 47 48 49 50
000
ASUS45 KBOI 250710
RWRID

IDAHO REGIONAL WEATHER ROUNDUP
NATIONAL WEATHER SERVICE BOISE ID
100 AM MDT MON JUL 25 2016

NOTE: "FAIR" INDICATES FEW OR NO CLOUDS BELOW 12000 FEET
WITH NO SIGNIFICANT WEATHER AND/OR OBSTRUCTIONS TO VISIBILITY

IDZ012-014-250800-
SOUTHWEST IDAHO


CITY           SKY/WX    TMP DP  RH WIND       PRES   REMARKS
BOISE          CLEAR     70  36  28 SE5       29.96F
CALDWELL       NOT AVBL
MOUNTAIN HOME  CLEAR     72  36  27 NW8       29.97S
$$

IDZ016-017-250800-
SOUTHCENTRAL IDAHO


CITY           SKY/WX    TMP DP  RH WIND       PRES   REMARKS
BURLEY         CLEAR     57  44  62 S5        30.05S
JEROME         CLEAR     65  38  36 E6        30.06R
TWIN FALLS     CLEAR     67  27  22 S12       30.06S
$$

IDZ019>023-250800-
SOUTHEAST IDAHO


CITY           SKY/WX    TMP DP  RH WIND       PRES   REMARKS
IDAHO FALLS    CLEAR     53  43  68 W5        30.12R
POCATELLO      CLEAR     59  33  37 E8        30.09S
REXBURG        CLEAR     54  41  61 NE5       30.13R
$$

IDZ006-010-011-018-031-032-250800-
CENTRAL IDAHO MOUNTAINS


CITY           SKY/WX    TMP DP  RH WIND       PRES   REMARKS
MCCALL         CLEAR     57  47  69 NW5       30.15R
HAILEY         CLEAR     59  37  44 NW6       30.16S
STANLEY        NOT AVBL
SALMON         CLEAR     63  41  45 SE3       30.05R
CHALLIS        CLEAR     66  36  32 SE6       30.11R
$$

IDZ002-004-006-007-026-250800-
NORTHERN IDAHO


CITY           SKY/WX    TMP DP  RH WIND       PRES   REMARKS
LEWISTON       CLEAR     75  42  30 CALM      29.96R
LOWELL           N/A     61  52  72 CALM      30.03R
COEUR D`ALENE  CLEAR     63  54  72 NE3       30.00R
MULLAN PASS    CLEAR     58  41  53 N5        30.22R
$$



USA.gov is the U.S. government's official web portal to all federal, state and local government web resources and services.